Waarnemingen

Advertentie
Mijn weer
St-Auban-Sur-Durance, Frankrijk (7588): temperatuur & dauwpunt: 16.02.2017 11:00:00 - 22.02.2017 11:00:00 (CET)St-Auban-Sur-Durance, Frankrijk (7588): temperatuur 5cm: 16.02.2017 11:00:00 - 22.02.2017 11:00:00 (CET)St-Auban-Sur-Durance, Frankrijk (7588): temperatuur -20cm: 16.02.2017 11:00:00 - 22.02.2017 11:00:00 (CET)St-Auban-Sur-Durance, Frankrijk (7588): windsnelheid & windstoten: 16.02.2017 11:00:00 - 22.02.2017 11:00:00 (CET)St-Auban-Sur-Durance, Frankrijk (7588): windrichting: 16.02.2017 11:00:00 - 22.02.2017 11:00:00 (CET)St-Auban-Sur-Durance, Frankrijk (7588): luchtdruk: 16.02.2017 11:00:00 - 22.02.2017 11:00:00 (CET)St-Auban-Sur-Durance, Frankrijk (7588): zicht: 16.02.2017 11:00:00 - 22.02.2017 11:00:00 (CET)St-Auban-Sur-Durance, Frankrijk (7588): Zonneschijnduur: 16.02.2017 11:00:00 - 22.02.2017 11:00:00 (CET)St-Auban-Sur-Durance, Frankrijk (7588): neerslag: 16.02.2017 11:00:00 - 22.02.2017 11:00:00 (CET)
Datum & Tijd tt [°C] td [°C] tt 5cm [°C] tt -20cm [°C] ff [km/u] ff [kn] fx [km/u] fx [kn] dd ppp [hPa] vv [km] sd [min] rr [mm]
22.02.2017 11:00:00 9,9 3,8 13,5 7,5 7 4 11 6 ZZW 1019,6 20 60 0,0
22.02.2017 10:00:00 6,6 3,6 5,7 7,5 3 2 8 5 ZZW 1020,7 20 60 0,0
22.02.2017 09:00:00 2,3 1,9 3,1 7,6 6 3 16 9 ZW 1021,8 0,2 45 0,0
22.02.2017 08:00:00 2,0 1,3 0,1 7,8 7 4 13 7 ZZO 1021,3 20 14 0,0
22.02.2017 07:00:00 1,3 0,7 -0,1 7,9 3 2 11 6 ZO 1021,1 3,5 0 0,0
22.02.2017 06:00:00 3,1 2,7 2,7 7,9 4 2 8 4 Z 1020,8 0,2 0 0,0
22.02.2017 05:00:00 3,9 3,5 2,5 8,0 6 4 18 10 ZW 1020,9 0,2 0 0,0
22.02.2017 04:00:00 4,8 1,8 2,6 8,2 10 5 20 11 ZZO 1020,5 20 0 0,0
22.02.2017 03:00:00 4,4 2,9 3,1 8,3 8 4 13 7 ZO 1020,9 19 0 0,0
22.02.2017 02:00:00 5,7 4,2 4,1 8,4 4 2 21 12 ZZO 1021,0 18 0 0,0
22.02.2017 01:00:00 7,5 5,3 4,8 8,5 8 4 25 13 W 1020,3 20 0 0,0
22.02.2017 00:00:00 7,6 5,2 5,2 8,5 9 5 17 9 NNO 1020,1 20 0 0,0
21.02.2017 23:00:00 9,1 4,7 7,1 8,5 9 5 25 13 W 1019,8 20 0 0,0
21.02.2017 22:00:00 12,0 4,5 10,8 8,6 16 9 31 17 N 1019,0 20 0 0,0
21.02.2017 21:00:00 12,4 4,6 11,4 8,5 20 11 37 20 N 1018,6 20 0 0,0
21.02.2017 20:00:00 13,1 4,8 9,8 8,5 23 13 33 18 N 1018,2 20 0 0,0
21.02.2017 19:00:00 14,3 5,4 10,1 8,4 6 4 14 8 ONO 1017,7 20 0 0,0
21.02.2017 18:00:00 14,4 6,0 13,5 8,1 10 5 24 13 W 1017,1 20 41 0,0
21.02.2017 17:00:00 16,1 6,0 16,2 7,9 16 9 23 12 WZW 1016,5 20 39 0,0
21.02.2017 16:00:00 16,8 5,4 19,2 7,6 18 10 28 15 ZW 1016,6 20 60 0,0
21.02.2017 15:00:00 16,1 4,8 19,7 7,3 23 12 31 17 ZW 1017,0 20 60 0,0
21.02.2017 14:00:00 15,4 2,5 18,6 7,0 19 10 28 15 ZW 1017,9 20 58 0,0
21.02.2017 13:00:00 14,0 2,2 19,0 6,9 16 9 26 14 ZZW 1018,9 20 60 0,0
21.02.2017 12:00:00 12,4 1,7 15,9 6,8 6 3 22 12 Z 1020,4 20 60 0,0
21.02.2017 11:00:00 9,6 0,5 9,9 6,8 9 5 21 11 N 1021,5 20 40 0,0
21.02.2017 10:00:00 7,3 -0,2 8,9 6,8 10 5 25 13 NO 1022,7 20 60 0,0
21.02.2017 09:00:00 4,9 -0,5 2,2 7,0 10 5 18 10 OZO 1023,4 20 60 0,0
21.02.2017 08:00:00 1,6 -1,1 -0,8 7,1 6 3 11 6 ZO 1024,1 20 12 0,0
21.02.2017 07:00:00 1,2 -1,4 -0,4 7,3 4 2 15 8 O 1023,9 20 0 0,0
21.02.2017 06:00:00 1,5 -0,9 -1,2 7,4 6 3 14 7 O 1024,0 20 0 0,0
21.02.2017 05:00:00 1,4 -1,2 -1,0 7,6 5 3 13 7 ZO 1024,1 20 0 0,0
21.02.2017 04:00:00 1,1 -1,3 -0,3 7,7 3 2 10 6 O 1024,3 20 0 0,0
21.02.2017 03:00:00 3,1 -1,3 0,7 7,8 5 3 14 7 O 1024,4 20 0 0,0
21.02.2017 02:00:00 2,0 -1,1 1,0 7,9 7 4 14 8 NO 1024,9 20 0 0,0
21.02.2017 01:00:00 2,7 -0,2 0,9 8,0 5 3 9 5 NO 1024,9 20 0 0,0
21.02.2017 00:00:00 3,3 -0,5 1,7 8,1 4 2 8 5 ONO 1024,7 20 0 0,0
20.02.2017 23:00:00 4,1 -0,1 2,9 8,2 3 2 9 5 NNW 1024,8 20 0 0,0
20.02.2017 22:00:00 4,1 -0,5 2,9 8,3 3 1 6 4 OZO 1024,5 20 0 0,0
20.02.2017 21:00:00 5,3 -0,3 3,8 8,4 2 1 10 6 W 1024,0 20 0 0,0
20.02.2017 20:00:00 7,4 0,1 5,1 8,3 2 1 14 8 ONO 1023,0 20 0 0,0
20.02.2017 19:00:00 9,7 0,8 8,1 8,2 9 5 24 13 W 1022,1 20 0 0,0
20.02.2017 18:00:00 12,9 -0,1 12,0 8,0 18 10 25 14 ZW 1020,8 20 38 0,0
20.02.2017 17:00:00 14,8 -1,3 16,5 7,8 17 9 28 15 ZZW 1020,2 20 60 0,0
20.02.2017 16:00:00 16,0 -3,5 18,8 7,6 14 8 31 17 WNW 1020,1 20 60 0,0
20.02.2017 15:00:00 15,6 -4,4 20,2 7,3 13 7 27 14 NNO 1020,2 18 60 0,0
20.02.2017 14:00:00 15,1 -4,3 18,8 7,1 13 7 32 17 NNO 1020,7 20 60 0,0
20.02.2017 13:00:00 13,6 -3,2 17,5 6,9 15 8 34 18 NNO 1021,6 20 60 0,0
20.02.2017 12:00:00 11,9 -3,9 15,4 6,8 17 9 31 17 NNO 1022,6 20 60 0,0
20.02.2017 11:00:00 10,4 -4,1 13,3 6,9 17 9 33 18 NO 1023,0 20 60 0,0
20.02.2017 10:00:00 8,2 -3,3 8,2 6,9 12 6 23 12 ONO 1023,4 20 60 0,0
20.02.2017 09:00:00 5,1 -3,2 2,8 7,1 9 5 22 12 O 1023,7 20 60 0,0
20.02.2017 08:00:00 1,4 -4,1 0,3 7,2 7 4 18 10 O 1024,1 20 11 0,0
20.02.2017 07:00:00 1,4 -3,5 0,2 7,4 10 5 21 11 ONO 1023,3 20 0 0,0
20.02.2017 06:00:00 1,2 -3,5 -0,3 7,6 8 5 20 11 OZO 1023,2 20 0 0,0
20.02.2017 05:00:00 1,1 -3,4 -0,1 7,7 7 4 15 8 OZO 1022,9 20 0 0,0
20.02.2017 04:00:00 1,9 -3,6 -0,3 7,9 6 3 16 9 O 1022,9 20 0 0,0
20.02.2017 03:00:00 4,5 -3,8 2,5 8,0 9 5 21 12 OZO 1022,6 20 0 0,0
20.02.2017 02:00:00 7,5 -4,6 5,7 8,1 7 4 29 16 O 1022,2 20 0 0,0
20.02.2017 01:00:00 8,5 -4,7 5,6 8,2 18 10 35 19 NNO 1022,0 20 0 0,0
20.02.2017 00:00:00 8,6 -4,6 5,6 8,4 17 9 32 17 N 1022,2 20 0 0,0
19.02.2017 23:00:00 8,0 -2,9 1,4 8,5 14 8 22 12 N 1022,4 20 0 0,0
19.02.2017 22:00:00 4,6 -2,1 1,4 8,6 3 1 6 3 Z 1023,3 20 0 0,0
19.02.2017 21:00:00 5,0 -1,0 3,0 8,7 4 2 8 4 ONO 1023,3 20 0 0,0
19.02.2017 20:00:00 6,6 -0,2 4,3 8,7 2 1 8 4 WZW 1022,9 20 0 0,0
19.02.2017 19:00:00 8,3 1,0 5,7 8,6 6 4 11 6 NO 1022,3 20 0 0,0
19.02.2017 18:00:00 12,0 1,6 10,0 8,4 9 5 14 7 WZW 1021,2 20 39 0,0
19.02.2017 17:00:00 14,2 0,4 16,0 8,2 8 4 13 7 ZZW 1021,0 20 58 0,0
19.02.2017 16:00:00 14,7 1,2 19,0 7,9 5 3 16 8 ZZW 1021,4 20 60 0,0
19.02.2017 15:00:00 14,6 1,5 18,8 7,6 9 5 29 16 WZW 1022,1 20 58 0,0
19.02.2017 14:00:00 13,7 1,3 15,8 7,4 7 4 24 13 NO 1022,9 20 55 0,0
19.02.2017 13:00:00 12,9 1,8 16,4 7,2 7 4 23 12 NO 1024,3 20 54 0,0
19.02.2017 12:00:00 10,9 1,4 14,8 7,1 8 5 21 12 N 1025,9 20 60 0,0
19.02.2017 11:00:00 8,7 0,9 12,3 7,1 9 5 18 10 N 1026,8 20 58 0,0
19.02.2017 10:00:00 6,3 0,4 8,6 7,2 7 4 15 8 NNO 1027,5 20 60 0,0
19.02.2017 09:00:00 3,8 1,0 2,8 7,4 4 2 10 5 NO 1028,2 20 19 0,0
19.02.2017 08:00:00 2,4 0,8 1,4 7,5 5 3 10 6 O 1028,0 20 0 0,0
19.02.2017 07:00:00 1,4 0,4 -0,2 7,6 6 4 10 6 ONO 1027,7 19 0 0,0
19.02.2017 06:00:00 0,9 -0,1 -0,4 7,8 7 4 12 7 ONO 1027,6 18 0 0,0
19.02.2017 05:00:00 0,8 -0,2 -0,6 8,0 7 4 10 6 NO 1027,3 16 0 0,0
19.02.2017 04:00:00 0,8 -0,4 -0,5 8,1 6 3 11 6 NO 1027,0 14 0 0,0
19.02.2017 03:00:00 1,2 0,2 0,0 8,2 8 4 11 6 NNO 1026,9 14 0 0,0
19.02.2017 02:00:00 1,5 0,3 0,2 8,4 4 2 8 4 NO 1026,7 13 0 0,0
19.02.2017 01:00:00 2,7 1,2 1,2 8,5 6 4 16 8 NNO 1026,3 15 0 0,0
19.02.2017 00:00:00 3,3 1,3 2,1 8,7 9 5 19 10 OZO 1025,9 20 0 0,0
18.02.2017 23:00:00 4,8 2,3 3,4 8,7 9 5 16 9 OZO 1025,3 20 0 0,0
18.02.2017 22:00:00 5,8 2,6 3,7 8,8 8 4 14 8 ZO 1024,9 20 0 0,0
18.02.2017 21:00:00 5,8 1,9 4,0 8,9 4 2 13 7 Z 1024,4 20 0 0,0
18.02.2017 20:00:00 8,6 2,4 6,4 8,9 11 6 13 7 ZW 1023,1 20 0 0,0
18.02.2017 19:00:00 9,7 2,3 8,4 8,8 10 5 21 11 WZW 1022,5 20 0 0,0
18.02.2017 18:00:00 12,2 2,1 11,7 8,7 14 8 33 18 ZW 1021,4 20 47 0,0
18.02.2017 17:00:00 14,2 2,4 16,2 8,5 23 12 32 17 ZW 1020,3 20 60 0,0
18.02.2017 16:00:00 15,2 2,0 17,9 8,2 20 11 27 15 ZW 1019,8 20 60 0,0
18.02.2017 15:00:00 15,0 2,2 19,0 7,9 17 9 28 15 ZW 1019,9 20 60 0,0
18.02.2017 14:00:00 15,3 0,7 19,7 7,7 13 7 19 10 ZZW 1020,4 20 60 0,0
18.02.2017 13:00:00 13,2 -0,8 18,6 7,5 3 1 18 10 NNW 1021,4 5 60 0,0
18.02.2017 12:00:00 11,9 -0,3 15,2 7,4 10 5 29 16 NNO 1022,3 20 60 0,0
18.02.2017 11:00:00 9,9 0,2 13,4 7,5 16 9 31 17 NO 1022,9 20 60 0,0
18.02.2017 10:00:00 8,2 0,2 9,4 7,6 15 8 29 16 NO 1023,0 20 60 0,0
18.02.2017 09:00:00 6,7 0,6 4,7 7,7 9 5 22 12 O 1023,1 17 60 0,0
18.02.2017 08:00:00 3,9 -0,3 3,4 7,8 6 4 21 11 O 1023,3 20 7 0,0
18.02.2017 07:00:00 5,6 0,8 3,4 7,9 7 4 23 12 O 1022,5 20 0 0,0
18.02.2017 06:00:00 6,2 1,1 4,8 8,0 6 3 28 15 O 1022,1 20 0 0,0
18.02.2017 05:00:00 6,6 1,1 6,0 8,1 12 7 26 14 NO 1021,7 20 0 0,0
18.02.2017 04:00:00 6,9 1,4 6,0 8,2 10 6 22 12 NO 1021,6 20 0 0,0
18.02.2017 03:00:00 7,5 1,3 6,9 8,3 13 7 26 14 NNO 1021,5 20 0 0,0
18.02.2017 02:00:00 8,5 1,2 7,6 8,4 20 11 46 25 N 1021,3 20 0 0,0
18.02.2017 01:00:00 8,9 0,8 8,3 8,5 19 11 44 24 NNO 1021,3 20 0 0,0
18.02.2017 00:00:00 9,5 0,6 8,0 8,5 17 9 30 16 NNO 1021,8 20 0 0,0
17.02.2017 23:00:00 9,7 0,3 8,6 8,6 10 6 35 19 NNO 1022,2 20 0 0,0
17.02.2017 22:00:00 10,3 0,3 9,0 8,7 22 12 34 19 N 1021,8 20 0 0,0
17.02.2017 21:00:00 11,0 1,0 9,6 8,7 23 13 34 18 N 1021,6 20 0 0,0
17.02.2017 20:00:00 11,7 1,3 10,5 8,7 23 13 36 20 N 1021,0 20 0 0,0
17.02.2017 19:00:00 13,0 0,7 11,6 8,6 14 8 31 17 N 1020,8 20 0 0,0
17.02.2017 18:00:00 13,7 0,7 12,6 8,4 19 10 26 14 N 1020,2 20 37 0,0
17.02.2017 17:00:00 14,5 6,6 16,5 8,2 11 6 22 12 ZW 1020,0 20 60 0,0
17.02.2017 16:00:00 14,0 7,1 16,9 8,0 17 9 30 16 ZW 1020,7 19 60 0,0
17.02.2017 15:00:00 14,0 7,1 17,3 7,7 22 12 29 16 ZW 1021,2 20 60 0,0
17.02.2017 14:00:00 13,7 4,8 17,3 7,5 18 10 23 13 ZZW 1022,2 20 60 0,0
17.02.2017 13:00:00 12,6 4,8 17,3 7,2 11 6 21 11 ZW 1023,8 20 60 0,0
17.02.2017 12:00:00 11,4 4,6 14,8 7,2 7 4 23 12 W 1025,0 20 60 0,0
17.02.2017 11:00:00 8,4 3,4 12,3 7,1 7 4 16 8 ZW 1026,6 19 60 0,0
17.02.2017 10:00:00 5,3 3,3 8,2 7,2 4 2 11 6 ZZO 1027,9 20 60 0,0
17.02.2017 09:00:00 3,5 3,2 2,0 7,3 4 2 16 8 ZO 1028,5 9 46 0,0
17.02.2017 08:00:00 1,9 1,6 1,4 7,4 6 4 16 9 O 1028,9 0,9 2 0,0
17.02.2017 07:00:00 2,0 1,6 1,9 7,5 7 4 17 9 O 1028,9 0,7 0 0,0
17.02.2017 06:00:00 2,6 2,2 2,9 7,6 0 0 8 5 N 1029,5 0,2 0 0,0
17.02.2017 05:00:00 3,1 2,7 3,5 7,7 2 1 9 5 NO 1029,7 0,2 0 0,0
17.02.2017 04:00:00 3,2 2,6 3,2 7,8 2 1 10 5 NO 1030,2 0,5 0 0,0
17.02.2017 03:00:00 3,2 2,6 0,8 7,9 7 4 9 5 NNO 1030,6 6 0 0,0
17.02.2017 02:00:00 2,5 1,6 0,9 8,1 6 3 10 6 NNO 1031,2 6 0 0,0
17.02.2017 01:00:00 2,8 1,9 1,2 8,2 4 2 6 4 NO 1031,6 8 0 0,0
17.02.2017 00:00:00 3,6 2,4 2,4 8,3 0 0 8 4 N 1031,9 12 0 0,0
16.02.2017 23:00:00 4,0 2,8 2,8 8,4 5 3 6 4 O 1031,9 12 0 0,0
16.02.2017 22:00:00 5,2 3,2 3,9 8,5 0 0 6 3 N 1031,7 20 0 0,0
16.02.2017 21:00:00 6,7 4,0 4,8 8,5 4 2 8 4 OZO 1030,9 20 0 0,0
16.02.2017 20:00:00 7,7 4,3 5,8 8,5 5 3 6 3 W 1030,5 20 0 0,0
16.02.2017 19:00:00 10,0 5,2 7,3 8,4 0 0 22 12 N 1029,9 20 0 0,0
16.02.2017 18:00:00 12,2 5,6 11,5 8,2 18 10 31 17 ZZW 1029,2 20 43 0,0
16.02.2017 17:00:00 13,8 5,9 14,7 8,0 19 11 29 16 ZZW 1028,6 20 55 0,0
16.02.2017 16:00:00 15,2 5,9 17,2 7,7 21 12 31 17 ZZW 1028,6 20 56 0,0
16.02.2017 15:00:00 14,7 6,3 19,0 7,4 13 7 24 13 ZW 1029,2 20 60 0,0
16.02.2017 14:00:00 14,8 5,3 18,7 7,1 10 5 18 10 ZZW 1029,9 20 60 0,0
16.02.2017 13:00:00 14,0 2,5 19,0 6,9 3 2 19 10 WZW 1031,1 19 60 0,0
16.02.2017 12:00:00 11,9 2,3 15,5 6,9 9 5 18 10 N 1032,4 20 60 0,0
16.02.2017 11:00:00 9,3 1,9 12,1 6,9 15 8 26 14 N 1033,4 20 60 0,0

tt = temperatuur
td = dauwpunt
tt 5cm = temperatuur 5cm
tt -20cm = temperatuur -20cm
ff = windsnelheid
fx = windstoten
dd = windrichting
ppp = luchtdruk
vv = zicht
sd = Zonneschijnduur
rr = neerslag

Weerstations in de omgeving